Location: Unspecified
(0.0000°N, 0.0000°E)
Time: 11:18:23
(UTC+00:00)

METEOR M2 - Visible Passes

Search period start: 14 December 2019 00:00
Search period end: 24 December 2019 00:00
Orbit: 818 x 828 km, 98.5° (Epoch: 14 December)

Date Brightness Start Highest point End Pass type
(mag) Time Alt. Az. Time Alt. Az. Time Alt. Az.
14 Dec ? 19:38:45 10° SE 19:39:17 13° SE 19:39:17 13° SE visible
14 Dec ? 21:20:16 10° SW 21:20:43 11° SW 21:20:43 11° SW visible
15 Dec ? 20:59:07 10° SSW 21:00:40 17° SSW 21:00:40 17° SSW visible
16 Dec ? 20:38:37 10° S 20:40:36 22° SSW 20:40:36 22° SSW visible
17 Dec ? 20:18:32 10° S 20:20:32 24° S 20:20:32 24° S visible
18 Dec ? 19:58:47 10° SSE 20:00:28 21° SSE 20:00:28 21° SSE visible
19 Dec ? 19:39:24 10° SE 19:40:24 15° SE 19:40:24 15° SE visible
19 Dec ? 21:21:03 10° SW 21:21:50 12° SW 21:21:50 12° SW visible
20 Dec ? 20:59:51 10° SSW 21:01:45 19° SW 21:01:45 19° SW visible
21 Dec ? 20:39:20 10° S 20:41:41 25° SSW 20:41:41 25° SSW visible
22 Dec ? 20:19:14 10° S 20:21:37 27° S 20:21:37 27° S visible
23 Dec ? 19:59:27 10° SSE 20:01:33 24° SSE 20:01:33 24° SSE visible
